• In Uzbekistan
  • List of Countries
  • For 7 days
  • Water Temperature
  • Satellite Maps
  • Weather Map
  • Weather Widgets
  • user-avatar
    Login

    Hourly Weather Jaunde

    Today, 23 November, Thursday

    Time Temperature Precipitation Wind Pressure Humidity
    00:00 +22°C° 0.1 mm 1 mps 697 mmHg 94%
    01:00 +22°C° 0.1 mm 1 mps 696 mmHg 95%
    02:00 +22°C° 0.5 mm 1 mps 696 mmHg 96%
    03:00 +22°C° 0.5 mm 1 mps 696 mmHg 96%
    04:00 +19°C° 0.5 mm 0 mps 696 mmHg 97%
    05:00 +20°C° 0.1 mm 0 mps 696 mmHg 96%
    06:00 +20°C° 0.1 mm 0 mps 697 mmHg 95%
    07:00 +20°C° 0.1 mm 0 mps 697 mmHg 94%
    08:00 +24°C° 0.7 mm 1 mps 697 mmHg 89%
    09:00 +25°C° 0.7 mm 1 mps 698 mmHg 84%
    10:00 +27°C° 0.7 mm 1 mps 698 mmHg 79%
    11:00 +28°C° 0.6 mm 1 mps 698 mmHg 73%
    12:00 +30°C° 0.6 mm 1 mps 697 mmHg 66%
    13:00 +29°C° 0.6 mm 0 mps 697 mmHg 60%
    14:00 +28°C° 0.7 mm 0 mps 697 mmHg 65%
    15:00 +29°C° 0.7 mm 1 mps 696 mmHg 69%
    16:00 +28°C° 0.7 mm 1 mps 695 mmHg 74%
    17:00 +26°C° 0.5 mm 1 mps 696 mmHg 80%
    18:00 +25°C° 0.5 mm 1 mps 696 mmHg 86%
    19:00 +23°C° 0.5 mm 1 mps 696 mmHg 93%
    20:00 +23°C° 0 mm 1 mps 696 mmHg 94%
    21:00 +22°C° 0 mm 1 mps 697 mmHg 94%
    22:00 +22°C° 0 mm 1 mps 697 mmHg 95%
    23:00 +22°C° 0 mm 1 mps 697 mmHg 96%

    Tomorrow, 24 November, Friday

    Time Temperature Precipitation Wind Pressure Humidity
    00:00 +22°C° 0 mm 1 mps 697 mmHg 96%
    01:00 +22°C° 0 mm 1 mps 697 mmHg 97%
    02:00 +22°C° 0 mm 1 mps 697 mmHg 97%
    03:00 +22°C° 0 mm 1 mps 696 mmHg 97%
    04:00 +22°C° 0 mm 1 mps 696 mmHg 97%
    05:00 +22°C° 0 mm 1 mps 696 mmHg 96%
    06:00 +22°C° 0 mm 1 mps 697 mmHg 95%
    07:00 +22°C° 0 mm 1 mps 697 mmHg 94%
    08:00 +24°C° 0.1 mm 1 mps 698 mmHg 87%
    09:00 +25°C° 0.1 mm 1 mps 698 mmHg 79%
    10:00 +27°C° 0.1 mm 1 mps 699 mmHg 72%
    11:00 +28°C° 0.1 mm 1 mps 698 mmHg 64%
    12:00 +30°C° 0.1 mm 1 mps 698 mmHg 55%
    13:00 +31°C° 0.1 mm 1 mps 697 mmHg 46%
    14:00 +31°C° 0.1 mm 1 mps 697 mmHg 48%
    15:00 +30°C° 0.1 mm 1 mps 696 mmHg 50%
    16:00 +30°C° 0.1 mm 1 mps 696 mmHg 51%
    17:00 +28°C° 0 mm 1 mps 696 mmHg 60%
    18:00 +26°C° 0 mm 1 mps 696 mmHg 69%
    19:00 +24°C° 0 mm 1 mps 696 mmHg 78%
    20:00 +23°C° 0 mm 1 mps 697 mmHg 83%
    21:00 +23°C° 0 mm 1 mps 697 mmHg 87%
    22:00 +23°C° 0 mm 1 mps 698 mmHg 91%
    23:00 +22°C° 0 mm 1 mps 698 mmHg 92%

    Day after tomorrow, 25 November, Saturday

    Time Temperature Precipitation Wind Pressure Humidity
    00:00 +22°C° 0 mm 1 mps 698 mmHg 94%
    01:00 +22°C° 0 mm 1 mps 697 mmHg 95%
    02:00 +22°C° 0 mm 1 mps 697 mmHg 94%
    03:00 +22°C° 0 mm 1 mps 697 mmHg 93%
    04:00 +22°C° 0 mm 1 mps 697 mmHg 92%
    05:00 +22°C° 0 mm 1 mps 697 mmHg 92%
    06:00 +22°C° 0 mm 1 mps 698 mmHg 91%
    07:00 +21°C° 0 mm 0 mps 698 mmHg 91%
    08:00 +24°C° 0 mm 1 mps 699 mmHg 83%
    09:00 +25°C° 0 mm 1 mps 699 mmHg 76%
    10:00 +27°C° 0 mm 1 mps 700 mmHg 69%
    11:00 +28°C° 0 mm 1 mps 699 mmHg 61%
    12:00 +30°C° 0 mm 1 mps 699 mmHg 54%
    13:00 +31°C° 0 mm 1 mps 698 mmHg 46%
    14:00 +31°C° 0 mm 1 mps 698 mmHg 47%
    15:00 +31°C° 0 mm 1 mps 697 mmHg 47%
    16:00 +30°C° 0 mm 1 mps 696 mmHg 48%
    17:00 +28°C° 0 mm 1 mps 697 mmHg 58%
    18:00 +26°C° 0 mm 1 mps 697 mmHg 68%
    19:00 +24°C° 0 mm 1 mps 697 mmHg 79%
    20:00 +23°C° 0 mm 1 mps 698 mmHg 83%
    21:00 +23°C° 0 mm 1 mps 698 mmHg 88%
    22:00 +22°C° 0 mm 1 mps 699 mmHg 93%
    23:00 +22°C° 0 mm 1 mps 698 mmHg 94%

    26 November, Sunday

    Time Temperature Precipitation Wind Pressure Humidity
    00:00 +22°C° 0 mm 1 mps 698 mmHg 95%
    01:00 +22°C° 0 mm 1 mps 698 mmHg 96%
    02:00 +22°C° 0 mm 1 mps 698 mmHg 94%
    03:00 +22°C° 0 mm 1 mps 698 mmHg 93%
    04:00 +22°C° 0 mm 1 mps 697 mmHg 92%
    05:00 +20°C° 0 mm 0 mps 698 mmHg 91%
    06:00 +20°C° 0 mm 0 mps 698 mmHg 91%
    07:00 +21°C° 0 mm 0 mps 699 mmHg 90%
    08:00 +23°C° 0 mm 0 mps 699 mmHg 79%
    09:00 +25°C° 0 mm 0 mps 700 mmHg 69%
    10:00 +27°C° 0 mm 0 mps 700 mmHg 58%
    11:00 +30°C° 0 mm 1 mps 700 mmHg 51%
    12:00 +31°C° 0 mm 1 mps 699 mmHg 43%
    13:00 +32°C° 0 mm 1 mps 698 mmHg 36%
    14:00 +32°C° 0 mm 1 mps 698 mmHg 36%
    15:00 +32°C° 0 mm 1 mps 697 mmHg 36%
    16:00 +32°C° 0 mm 1 mps 697 mmHg 36%
    17:00 +29°C° 0 mm 1 mps 697 mmHg 44%
    18:00 +27°C° 0 mm 1 mps 697 mmHg 52%
    19:00 +22°C° 0 mm 0 mps 697 mmHg 61%
    20:00 +24°C° 0 mm 1 mps 698 mmHg 66%
    21:00 +23°C° 0 mm 1 mps 698 mmHg 72%
    22:00 +22°C° 0 mm 1 mps 699 mmHg 77%
    23:00 +22°C° 0 mm 1 mps 699 mmHg 82%

    27 November, Monday

    Time Temperature Precipitation Wind Pressure Humidity
    00:00 +22°C° 0 mm 1 mps 698 mmHg 86%
    01:00 +22°C° 0 mm 1 mps 698 mmHg 91%
    02:00 +22°C° 0 mm 1 mps 698 mmHg 91%
    03:00 +20°C° 0 mm 0 mps 698 mmHg 92%
    04:00 +20°C° 0 mm 0 mps 698 mmHg 92%
    05:00 +20°C° 0 mm 0 mps 698 mmHg 92%
    06:00 +20°C° 0 mm 0 mps 699 mmHg 91%
    07:00 +20°C° 0 mm 0 mps 699 mmHg 91%
    08:00 +23°C° 0 mm 0 mps 699 mmHg 79%
    09:00 +25°C° 0 mm 0 mps 700 mmHg 68%
    10:00 +29°C° 0 mm 1 mps 700 mmHg 56%
    11:00 +30°C° 0 mm 1 mps 700 mmHg 51%
    12:00 +32°C° 0 mm 1 mps 699 mmHg 46%
    13:00 +33°C° 0 mm 1 mps 698 mmHg 41%
    14:00 +32°C° 0 mm 1 mps 698 mmHg 44%
    15:00 +31°C° 0 mm 1 mps 697 mmHg 47%
    16:00 +30°C° 0 mm 1 mps 697 mmHg 50%
    17:00 +28°C° 0 mm 1 mps 697 mmHg 58%
    18:00 +26°C° 0 mm 1 mps 697 mmHg 65%
    19:00 +22°C° 0 mm 0 mps 697 mmHg 72%
    20:00 +24°C° 0 mm 1 mps 698 mmHg 76%
    21:00 +23°C° 0 mm 1 mps 698 mmHg 80%
    22:00 +22°C° 0 mm 1 mps 698 mmHg 84%
    23:00 +22°C° 0 mm 1 mps 698 mmHg 87%

    28 November, Tuesday

    Time Temperature Precipitation Wind Pressure Humidity
    00:00 +22°C° 0 mm 1 mps 698 mmHg 90%
    01:00 +21°C° 0 mm 1 mps 697 mmHg 94%
    02:00 +21°C° 0 mm 1 mps 697 mmHg 94%
    03:00 +21°C° 0 mm 1 mps 697 mmHg 94%
    04:00 +21°C° 0 mm 1 mps 697 mmHg 95%
    05:00 +22°C° 0 mm 1 mps 698 mmHg 93%
    06:00 +22°C° 0 mm 1 mps 698 mmHg 92%
    07:00 +22°C° 0 mm 1 mps 698 mmHg 90%
    08:00 +24°C° 0 mm 1 mps 699 mmHg 80%
    09:00 +27°C° 0 mm 1 mps 699 mmHg 69%
    10:00 +29°C° 0 mm 1 mps 699 mmHg 59%
    11:00 +30°C° 0 mm 1 mps 699 mmHg 53%
    12:00 +31°C° 0 mm 1 mps 698 mmHg 46%
    13:00 +33°C° 0 mm 1 mps 697 mmHg 40%
    14:00 +32°C° 0 mm 1 mps 697 mmHg 42%
    15:00 +31°C° 0 mm 1 mps 696 mmHg 45%
    16:00 +31°C° 0 mm 1 mps 696 mmHg 47%
    17:00 +28°C° 0 mm 1 mps 696 mmHg 55%
    18:00 +26°C° 0 mm 1 mps 696 mmHg 64%
    19:00 +24°C° 0 mm 1 mps 697 mmHg 73%
    20:00 +24°C° 0 mm 1 mps 697 mmHg 78%
    21:00 +23°C° 0 mm 1 mps 697 mmHg 83%
    22:00 +22°C° 0 mm 1 mps 698 mmHg 88%
    23:00 +22°C° 0 mm 1 mps 698 mmHg 90%
    Show more